Date,TemperatureHighF,TemperatureAvgF,TemperatureLowF,DewpointHighF,DewpointAvgF,DewpointLowF,HumidityHigh,HumidityAvg,HumidityLow,PressureMaxIn,PressureMinIn,WindSpeedMaxMPH,WindSpeedAvgMPH,GustSpeedMaxMPH,PrecipitationSumIn
2013-1-1,46.9,41.6,37.9,33.8,31.0,0.0,73,66,58,29.98,29.84,54,1,54,0.00
2013-1-2,42.6,33.9,28.2,26.1,19.8,-26.5,63,56,33,30.20,29.95,10,1,10,0.00
2013-1-3,38.8,30.8,23.1,23.6,19.4,3.7,72,62,49,30.22,30.11,8,1,8,0.00
2013-1-4,41.9,35.6,31.6,27.2,24.2,22.3,72,63,52,30.16,30.03,14,2,14,0.00
2013-1-5,47.4,35.9,30.3,29.1,24.3,21.0,74,63,47,30.35,30.08,11,1,11,0.00
2013-1-6,50.7,36.7,31.8,38.6,29.3,8.6,85,75,58,30.23,30.01,7,0,7,0.00
2013-1-7,51.9,39.8,27.3,34.6,28.3,21.1,77,64,47,30.42,30.06,12,1,12,0.00
2013-1-8,54.1,38.0,24.6,39.2,29.8,19.6,87,73,55,30.44,30.35,8,0,8,0.00
2013-1-9,58.8,51.6,40.8,44.8,41.5,34.2,82,69,58,30.37,30.16,10,1,10,0.00
2013-1-10,56.4,44.7,34.3,37.0,31.9,11.0,76,62,44,30.52,30.29,11,1,11,0.00
2013-1-11,52.3,42.5,31.2,49.5,37.0,5.6,90,81,69,30.49,30.03,8,1,8,0.12
2013-1-12,56.4,48.1,45.1,50.3,44.3,41.2,88,87,80,30.13,30.03,8,1,8,0.00
2013-1-13,56.4,52.7,45.6,50.5,49.7,23.9,90,90,80,30.12,29.98,5,0,5,0.00
2013-1-14,54.1,51.4,46.5,50.5,45.5,41.9,90,81,73,30.22,29.98,6,0,6,0.08
2013-1-15,46.5,39.8,35.9,41.9,36.3,32.7,89,87,84,30.25,30.11,11,1,11,0.61
2013-1-16,44.2,40.0,36.1,41.2,37.2,33.2,91,90,88,30.13,29.81,9,1,9,0.43
2013-1-17,44.4,41.7,37.2,40.9,37.5,33.3,89,85,76,30.09,29.93,57,0,57,0.08
2013-1-18,42.0,34.7,25.1,34.4,25.6,10.8,87,70,33,30.51,29.99,12,1,12,0.18
2013-1-19,53.7,40.1,25.3,34.4,28.3,15.5,78,64,41,30.45,29.98,13,1,13,0.00
2013-1-20,59.5,46.4,36.8,41.2,31.1,15.4,73,56,38,30.06,29.76,14,3,14,0.00
2013-1-21,48.5,36.0,27.1,24.4,19.6,12.6,76,52,36,30.12,29.75,8,1,15,0.00
2013-1-22,30.0,23.7,16.7,21.8,7.5,0.4,71,50,39,30.27,29.86,20,4,20,0.00
2013-1-23,30.0,20.2,13.2,8.6,3.2,-8.9,55,47,33,30.32,30.17,12,2,12,0.00
2013-1-24,30.7,22.2,17.7,7.5,4.1,-3.0,55,46,35,30.47,30.10,18,2,18,0.00
2013-1-25,29.1,21.6,15.2,14.9,7.9,1.5,74,56,44,30.48,30.06,7,0,7,0.18
2013-1-26,34.7,23.8,12.5,19.6,12.5,5.8,76,62,47,30.41,30.06,17,2,17,0.18
2013-1-27,44.4,25.6,0.0,23.1,13.5,0.0,72,61,42,30.57,30.41,12,1,12,0.00
2013-1-28,38.4,32.2,22.1,33.8,26.4,13.8,85,79,70,30.50,30.03,8,0,8,0.06
2013-1-29,58.8,44.7,36.1,50.9,39.4,32.0,87,82,69,30.13,30.02,6,0,8,0.00
2013-1-30,66.0,54.3,44.4,57.5,49.8,34.5,90,85,72,30.03,29.43,19,3,19,0.00
2013-1-31,51.6,43.6,32.1,34.8,24.9,14.2,58,47,42,29.88,29.49,22,6,25,0.00